Regional Weather Roundup
Issued by NWS

Home | Current Version | Previous Version | Text Only | Print | Product List | Glossary Off
Versions: 1 2 3 4 5 6 7 8 9 10 11 12 13 14 15 16 17 18 19 20 21 22 23 24 25 26 27 28 29 30 31 32 33 34 35 36 37 38 39 40 41 42 43 44 45 46 47 48 49 50

000
ASUS43 KFSD 182110
RWRSD

WEATHER ROUNDUP FOR SOUTH DAKOTA
NATIONAL WEATHER SERVICE SIOUX FALLS SD
300 PM CST SUN FEB 18 2018

NOTE: "FAIR" INDICATES FEW OR NO CLOUDS BELOW 12,000 FEET WITH NO
SIGNIFICANT WEATHER AND/OR OBSTRUCTIONS TO VISIBILITY.


SDZ001>005-009-010-012>017-182200-
NORTHWEST AND NORTH CENTRAL SOUTH DAKOTA

CITY           SKY/WX    TMP DP  RH WIND       PRES   REMARKS
BUFFALO          N/A     10   3  73 N22       29.70F WCI -10
FAITH            N/A     12   9  87 N25       29.74R WCI  -8
MOBRIDGE       LGT SNOW  19  11  70 N23       29.73R WCI   2
$$

SDZ012>016-024>037-041>051-057-063-072>074-182200-
SOUTHWEST AND SOUTH CENTRAL SOUTH DAKOTA

CITY           SKY/WX    TMP DP  RH WIND       PRES   REMARKS
RAPID CTY ARPT SNOW      11   7  84 N33G47    29.67R VSB 1/2 WCI -12
PIERRE         CLOUDY    20  17  88 N23       29.68R FOG     WCI   3
CUSTER         CLOUDY    26  23  88 VRB3      29.48S
ELLSWORTH AFB  BLWGSNOW  11   9  92 N31G41    29.65  VSB 1/4 WCI -11
PHILIP         LGT SNOW  18  13  80 N23       29.74R WCI   0
PINE RIDGE     FLURRIES  23  18  81 N21G26    29.65R WCI   8
SPEARFISH      LGT SNOW  10   7  85 NW14      29.71R VSB 1   WCI  -5
WINNER         CLOUDY    30  24  78 N24       29.64R WCI  16
$$

SDZ004>011-016>023-039-040-182200-
NORTHEAST SOUTH DAKOTA

CITY           SKY/WX    TMP DP  RH WIND       PRES   REMARKS
ABERDEEN       CLOUDY    22  15  75 N22G30    29.69R WCI   6
WATERTOWN      CLOUDY    34  24  67 N17       29.55R WCI  23
BROOKINGS      CLOUDY    43  28  55 W13       29.51R
SISSETON         N/A     24  18  77 N25       29.63R WCI   8
$$

SDZ017-020-022-023-036>040-048>070-182200-
SOUTHEAST SOUTH DAKOTA

CITY           SKY/WX    TMP DP  RH WIND       PRES   REMARKS
SIOUX FALLS    CLOUDY    44  30  57 SW16G22   29.53S
HURON          CLOUDY    30  22  72 N22G30    29.60R WCI  17
CHAMBERLAIN    CLOUDY    32  26  80 NW20      29.63R WCI  20
MITCHELL       CLOUDY    35  29  78 NW23      29.59R WCI  23
YANKTON        CLOUDY    47  30  51 S8        29.52F
$$

ABBREVIATIONS USED IN REMARKS
   TC - TEMPERATURE IN CELSIUS
  WCI - WIND CHILL INDEX
   HX - HEAT INDEX
  VSB - VISIBILITY





USA.gov is the U.S. government's official web portal to all federal, state and local government web resources and services.